Flag for Burundi Weather past 2 weeks in Muyinga, Burundi

Now
66 °F

Broken clouds.


Feels Like: 66 °F
Forecast: 59 / 70 °F
Wind: No wind

Location: Kigali Airport

Current Time: Mar 29, 2015 at 9:08:20 AM

Latest Report: Mar 29, 2015 at 8:30 AM


Visibility: N/A

Pressure: 30.18 "Hg

Humidity: 100%

Dew point: 66 °F

Location of MuyingaLocation

Historic Weather in Muyinga — Graph

°F

Muyinga temperature yesterday

Maximum temperature yesterday: 82 °F (at 3:00 PM)
Minimum temperature yesterday: 64 °F (at 5:00 AM)
Average temperature yesterday: 71 °F

Past Weeks' High & Low Weather Summary

 TemperatureHumidityPressure
High90 °F (Mar 16, 2:30 PM)100% (Mar 15, 2:00 AM)30.21 "Hg (Mar 15, 2:00 AM)
Low59 °F (Mar 16, 6:30 AM)22% (Mar 16, 4:00 PM)29.95 "Hg (Mar 18, 3:30 PM)
Average72 °F77%30.08 "Hg
* Reported Mar 14 8:00 AM — Mar 29 8:00 AM, Muyinga, Weather by CustomWeather, © 2015

Note: Actual official high and low records may vary slightly from our data, if they occured in-between our weather recording intervals... More about our weather records

Advertising

Muyinga weather history for previous 24 hours

 ConditionsComfort  
Time TempWeatherWind HumidityBarometerVisibility
8:00 AM
Sun, Mar 29
66 °FBroken clouds.No wind100%30.15 "HgN/A
7:30 AM66 °FBroken clouds.No wind100%30.15 "HgN/A
7:00 AM64 °FBroken clouds.No wind100%30.15 "Hg5 mi
6:30 AM64 °FBroken clouds.No wind100%30.12 "Hg5 mi
6:00 AM64 °FPartly cloudy.No wind100%30.12 "Hg5 mi
5:30 AM64 °FPassing clouds.No wind100%30.09 "Hg5 mi
5:00 AM64 °FPassing clouds.No wind100%30.09 "Hg5 mi
4:30 AM64 °FPassing clouds.No wind100%30.07 "HgN/A
4:00 AM64 °FPassing clouds.No wind100%30.07 "HgN/A
3:30 AM64 °FPassing clouds.No wind100%30.07 "HgN/A
3:00 AM66 °FPartly cloudy.No wind100%30.07 "HgN/A
2:30 AM66 °FPartly cloudy.No wind100%30.09 "HgN/A
2:00 AM66 °FPartly cloudy.No wind100%30.09 "HgN/A
1:30 AM68 °FPartly cloudy.No wind94%30.09 "HgN/A
1:00 AM68 °FPartly cloudy.No wind94%30.09 "HgN/A
12:30 AM68 °FPartly cloudy.No wind94%30.12 "HgN/A
12:00 AM68 °FPartly cloudy.No wind94%30.12 "HgN/A
11:30 PM
Sat, Mar 28
68 °FPassing clouds.No wind94%30.12 "HgN/A
10:30 PM70 °FPassing clouds.No wind88%30.12 "HgN/A
10:00 PM70 °FPassing clouds.No wind88%30.12 "HgN/A
9:30 PM70 °FPassing clouds.No wind88%30.12 "HgN/A
9:00 PM70 °FPassing clouds.No wind83%30.12 "HgN/A
8:30 PM70 °FPassing clouds.No wind83%30.12 "HgN/A
8:00 PM70 °FPassing clouds.7 mph88%30.12 "HgN/A
7:30 PM72 °FPassing clouds.7 mph83%30.09 "HgN/A
7:00 PM72 °FPassing clouds.8 mph83%30.07 "HgN/A
6:30 PM72 °FPassing clouds.8 mph78%30.04 "HgN/A
6:00 PM72 °FScattered clouds.9 mph83%30.04 "HgN/A
5:30 PM75 °FScattered clouds.10 mph74%30.04 "HgN/A
5:00 PM79 °FScattered clouds.9 mph70%30.04 "HgN/A
4:30 PM81 °FScattered clouds.No wind62%30.01 "HgN/A
4:00 PM82 °FScattered clouds.No wind51%30.04 "HgN/A
3:30 PM81 °FScattered clouds.3 mph54%30.04 "HgN/A
3:00 PM82 °FScattered clouds.3 mph55%30.04 "HgN/A
2:30 PM81 °FScattered clouds.6 mph58%30.04 "HgN/A
2:00 PM81 °FScattered clouds.5 mph58%30.07 "HgN/A
1:30 PM77 °FScattered clouds.3 mph61%30.09 "HgN/A
12:30 PM75 °FScattered clouds.8 mph65%30.12 "HgN/A
11:30 AM73 °FPartly sunny.6 mph69%30.15 "HgN/A
11:00 AM72 °FPartly sunny.5 mph78%30.18 "HgN/A
10:30 AM70 °FPartly sunny.6 mph83%30.18 "HgN/A
10:00 AM68 °FPartly sunny.6 mph88%30.18 "HgN/A
9:30 AM70 °FPartly sunny.7 mph78%30.18 "HgN/A
9:00 AM68 °FPartly sunny.12 mph88%30.18 "HgN/A
Weather by CustomWeather, © 2015

See weather overviewHow to use our weather pages